Flag for Germany Weather past 2 weeks in Ludwigsfelde, Brandenburg, Germany

45 °F

Light rain. Overcast.

Feels Like: 44 °F
Forecast: 39 / 49 °F
Wind: 3 mph from East

Location: Potsdam

Current Time: Oct 9, 2015 at 8:07:54 AM

Latest Report: Oct 9, 2015 at 7:00 AM

Visibility: 9 mi

Pressure: 30.17 "Hg

Humidity: 98%

Dew point: 45 °F

Location of LudwigsfeldeLocation

Historic Weather in Ludwigsfelde — Graph


Ludwigsfelde temperature yesterday

Maximum temperature yesterday: 49 °F (at 1:00 AM)
Minimum temperature yesterday: 44 °F (at 12:00 PM)
Average temperature yesterday: 46 °F

Past Weeks' High & Low Weather Summary

High69 °F (Oct 3, 3:00 PM)100% (Sep 26, 6:00 AM)30.69 "Hg (Sep 26, 6:00 AM)
Low41 °F (Oct 2, 8:00 AM)32% (Oct 1, 3:00 PM)29.78 "Hg (Oct 6, 6:00 PM)
Average54 °F78%30.23 "Hg
* Reported Sep 24 7:00 AM — Oct 9 7:00 AM, Ludwigsfelde, Weather by CustomWeather, © 2015

Note: Actual official high and low records may vary slightly from our data, if they occured in-between our weather recording intervals... More about our weather records


Ludwigsfelde weather history for previous 24 hours

Time TempWeatherWind HumidityBarometerVisibility
7:00 AM
Fri, Oct 9
45 °FLight rain. Overcast.3 mph98%30.17 "Hg9 mi
6:00 AM46 °FLight rain. Overcast.3 mph98%30.16 "Hg10 mi
5:00 AM47 °FOvercast.3 mph100%30.17 "Hg9 mi
4:00 AM47 °FLow clouds.2 mph99%30.16 "Hg6 mi
3:00 AM47 °FLow clouds.1 mph99%30.16 "Hg6 mi
2:00 AM46 °FLight rain. Overcast.1 mph99%30.16 "Hg6 mi
1:00 AM45 °FRain. Low clouds.1 mph99%30.16 "Hg6 mi
11:00 PM
Thu, Oct 8
46 °FRain. Low clouds.1 mph99%30.17 "Hg5 mi
10:00 PM45 °FDrizzle. Low clouds.2 mph99%30.17 "Hg3 mi
9:00 PM45 °FLow clouds.2 mph99%30.16 "Hg2 mi
8:00 PM45 °FRain. Low clouds.2 mph99%30.16 "Hg2 mi
7:00 PM45 °FRain. Low clouds.2 mph99%30.15 "Hg1 mi
6:00 PM45 °FRain. Low clouds.2 mph98%30.14 "Hg2 mi
5:00 PM45 °FDrizzle. Low clouds.2 mph97%30.13 "Hg2 mi
4:00 PM45 °FLight rain. Low clouds.2 mph97%30.12 "Hg2 mi
3:00 PM45 °FLight rain. Low clouds.3 mph97%30.11 "Hg2 mi
2:00 PM45 °FLight rain. Low clouds.2 mph96%30.11 "Hg2 mi
1:00 PM45 °FLight rain. Low clouds.5 mph97%30.11 "Hg2 mi
12:00 PM44 °FLight rain. Low clouds.2 mph97%30.10 "Hg2 mi
11:00 AM45 °FLight rain. Low clouds.3 mph98%30.09 "Hg2 mi
10:00 AM44 °FLight rain. Low clouds.3 mph98%30.07 "Hg3 mi
9:00 AM45 °FLight rain. Overcast.3 mph98%30.06 "Hg3 mi
8:00 AM45 °FLight rain. Overcast.3 mph99%30.04 "Hg3 mi
Weather by CustomWeather, © 2015

See weather overviewHow to use our weather pages